Weather in Shimbilik

Russia / Zabaykalsky Krai     50°33′48″N   109°34′25″E
temp.,
°C
wind,
m/s
gust,
m/s
humid.,
%
clouds,
%
prec.,
mm/h
press.,
hPa
HPBL,
m
14 may, fri
fri1400:00−2wnw11645 0.0 101712
03:00−4wsw22683 0.0 101819
06:00−4wsw22725 0.0 101934
09:00+2w35525 0.0 10171091
12:00+7wnw4640100 0.0 10152180
15:00+8nw564098 0.1 10142203
18:00+9nw4738100 0.1 10142218
21:00+4wsw11587 0.1 101610
15 may, sat
sat1500:000sw22742 0.0 102016
03:00−1sw11790 0.0 102114
06:00−2ssw11810 0.0 102215
09:00+6ssw13440 0.0 1019420
12:00+13w46231 0.0 10151636
15:00+16w57193 0.0 10132924
18:00+15wnw57211 0.0 10122746
21:00+8wnw244776 0.0 101453
16 may, sun
sun1600:00+4wsw126568 0.0 101815
03:00+2sw21705 0.0 101814
06:00+2sw11745 0.0 101815
09:00+9wsw26478 0.0 1016573
12:00+15wsw493620 0.0 10121747
15:00+19w592589 0.0 10083065
18:00+18wnw692787 0.0 10072751
21:00+11nw38635 0.0 1011466
17 may, mon
mon1700:00+6w11875 0.0 101313
03:00+4sw11945 0.0 101217
06:00+5sse128798 0.0 100945
09:00+12ssw14557 0.0 1005505
12:00+18w493810 0.0 10021642
15:00+17nw61043100 0.0 10021986
18:00+17nw6113845 0.0 10021821
21:00+11w225737 0.0 100313
18 may, tue
tue1800:00+7ssw1173100 0.0 100317
03:00+6ssw117896 0.0 100222
06:00+7wsw1179100 0.2 100130
09:00+11nw267196 0.8 1002831
12:00+10wnw2675100 0.8 10041118
15:00+9nw5666100 1.8 10071137
18:00+13w473292 0.0 10052083
21:00+8w12515 0.0 100623